Kezdőlap
METAR-TAF:

METAR-TAF

Repülőterek :

Taylor County Airport

Medford, Wisconsin, Amerikai Egyesült Államok

földrajzi szélesség: 45-06-04N, földrajzi hosszúság: 090-18-12W, magasság: 448 m

Jelenlegi meteorológiai megfigyelések

A jelentés 30 perccel ezelõtt készült, 15:55 UTC
Dél-délnyugati szél 10 kt
Hőmérséklet 11°C
Páratartalom 37%
Légköri nyomás 1016 hPa
Látótávolság: 16.1 km
Derült ég

METAR: KMDZ 131555Z AUTO 21010KT 10SM CLR 11/M03 A3000 RMK AO2 T01131026 PWINO

Idő: 11:25 (16:25 UTC)


TAF: hiányzik

Meteorológiai megfigyelések és előrejelzések több, mint 4000 repülőtéren (METAR és TAF jelentéseket).

A térképen piros és sárga pontok jelzik az elérhető meteorológiai állomásokat.

Mozgassa az egeret a pont fölött, hogy megjelenjen az állomás neve.

Azután kattintson az időjárási megfigyelések és előrejelzések megtekintéséhez.

A térkép megváltoztatása: kattintson a fekete keresztel jelölt zöld gombra ráközelítéshez, a vonallal jelölt zöld gombra távolításhoz, vagy a zöld nyilakra a szomszédos térképek eléréséhez.


METAR-TAF: